University AP, Davis, CA, CA

6:12 AM PST on December 11, 2019 (GMT -0800)
University AP, Davis, CA

Weather History for KEDU - October, 2019

Change the Weather History Date:

Sunday, October 13, 2019

  Actual Average (KSMF) Record (KSMF)
Temperature  
Mean Temperature 60 °F -  
Max Temperature 77 °F 78 °F 96 °F (2015)
Min Temperature 44 °F 51 °F 41 °F (2000)
Degree Days  
Heating Degree Days 4    
Growing Degree Days 10 (Base 50)    
Moisture  
Dew Point 35 °F    
Average Humidity 45    
Maximum Humidity 71    
Minimum Humidity 18    
Precipitation  
Precipitation 0.00 in - - ()
Sea Level Pressure  
Sea Level Pressure 29.85 in    
Wind  
Wind Speed 2 mph ()    
Max Wind Speed 8 mph    
Max Gust Speed -    
Visibility 9.9 miles    
Events      
Averages and records for this station are not official NWS values.
T = Trace of Precipitation, MM = Missing Value Source: Averaged Metar Reports

Daily Weather History Graph

Daily Weather History Graph

Search for Another Location

Airport or City:

Astronomy

Oct. 13, 2019 Rise Set
Actual Time 7:14 AM PDT 6:32 PM PDT
Civil Twilight 6:47 AM PDT 6:58 PM PDT
Nautical Twilight 6:16 AM PDT 7:29 PM PDT
Astronomical Twilight 5:46 AM PDT 8:00 PM PDT
Moon 6:56 PM PDT (10/13) 6:54 AM PDT (10/13)
Length of Visible Light 12h 11m
Length of Day
11h 17m
Full, 100% of the Moon is Illuminated
Oct 13
Full
Oct 13
Full
Oct 21
Last Quarter
Oct 27
New
Nov 4
First Quarter

Hourly Weather History & Observations

Time (PDT) Temp. Windchill Dew Point Humidity Pressure Visibility Wind Dir Wind Speed Gust Speed Precip Events Conditions
12:00 AM 51.8 °F - 39.2 °F 62% 29.85 in 10.0 mi Calm Calm - N/A   Clear
12:20 AM 51.8 °F - 37.4 °F 58% 29.85 in 10.0 mi North - - N/A   Clear
12:40 AM 51.8 °F - 37.4 °F 58% 29.85 in 10.0 mi Calm Calm - N/A   Clear
1:00 AM 50.0 °F - 37.4 °F 62% 29.85 in 10.0 mi Calm Calm - N/A   Clear
1:20 AM 50.0 °F - 39.2 °F 66% 29.86 in 10.0 mi Calm Calm - N/A   Clear
2:00 AM 48.2 °F - 37.4 °F 66% 29.86 in 10.0 mi Calm Calm - N/A   Clear
2:20 AM 46.4 °F - 35.6 °F 66% 29.86 in 10.0 mi Calm Calm - N/A   Clear
3:00 AM 48.2 °F - 37.4 °F 66% 29.86 in 10.0 mi Calm Calm - N/A   Clear
3:20 AM 46.4 °F - 37.4 °F 71% 29.85 in 10.0 mi Calm Calm - N/A   Clear
3:40 AM 46.4 °F - 37.4 °F 71% 29.85 in 10.0 mi Calm Calm - N/A   Clear
4:00 AM 48.2 °F - 35.6 °F 62% 29.85 in 10.0 mi Calm Calm - N/A   Clear
4:20 AM 44.6 °F - 35.6 °F 71% 29.85 in 9.0 mi Calm Calm - N/A   Clear
4:40 AM 44.6 °F - 35.6 °F 71% 29.85 in 10.0 mi Calm Calm - N/A   Clear
5:00 AM 46.4 °F - 33.8 °F 62% 29.85 in 10.0 mi Calm Calm - N/A   Clear
5:20 AM 46.4 °F - 33.8 °F 62% 29.85 in 10.0 mi Calm Calm - N/A   Clear
5:40 AM 46.4 °F - 32.0 °F 57% 29.85 in 10.0 mi Calm Calm - N/A   Clear
6:00 AM 46.4 °F 45.2 °F 33.8 °F 62% 29.85 in 10.0 mi NNE 3.5 mph - N/A   Clear
6:20 AM 46.4 °F - 35.6 °F 66% 29.86 in 10.0 mi Calm Calm - N/A   Clear
6:40 AM 46.4 °F 45.2 °F 35.6 °F 66% 29.86 in 10.0 mi North 3.5 mph - N/A   Clear
6:55 AM - - - N/A% 29.85 in - Calm Calm - N/A   Unknown
7:10 AM 46.4 °F 45.2 °F 35.6 °F 66% 29.86 in 10.0 mi NNW 3.5 mph - N/A   Unknown
7:35 AM 46.4 °F 45.2 °F 35.6 °F 66% 29.87 in 10.0 mi NNW 3.5 mph - N/A   Clear
7:50 AM 48.2 °F - 35.6 °F 62% 29.87 in 10.0 mi NNW 4.6 mph - N/A   Clear
8:15 AM 48.2 °F - 35.6 °F 62% 29.87 in 10.0 mi NNW 4.6 mph - N/A   Clear
8:30 AM 48.2 °F - 35.6 °F 62% 29.88 in 10.0 mi NNE 3.5 mph - N/A   Clear
8:55 AM 53.6 °F - 35.6 °F 51% 29.88 in 10.0 mi North 4.6 mph - N/A   Clear
9:10 AM 55.4 °F - 35.6 °F 47% 29.88 in 10.0 mi NNW 8.1 mph - N/A   Clear
9:30 AM 57.2 °F - 37.4 °F 48% 29.88 in 10.0 mi NNW 5.8 mph - N/A   Clear
9:50 AM 57.2 °F - 37.4 °F 48% 29.88 in 10.0 mi NNW 3.5 mph - N/A   Clear
10:10 AM 62.6 °F - 37.4 °F 39% 29.88 in 10.0 mi North 8.1 mph - N/A   Clear
10:30 AM 64.4 °F - 37.4 °F 37% 29.89 in 10.0 mi North 8.1 mph - N/A   Clear
10:50 AM 64.4 °F - 35.6 °F 34% 29.89 in 10.0 mi NNW 6.9 mph - N/A   Clear
11:30 AM 68.0 °F - 35.6 °F 30% 29.88 in 10.0 mi NE 5.8 mph - N/A   Clear
11:55 AM 68.0 °F - 35.6 °F 30% 29.88 in 10.0 mi North 5.8 mph - N/A   Clear
12:10 PM 69.8 °F - 35.6 °F 28% 29.87 in 10.0 mi NNE 5.8 mph - N/A   Clear
12:35 PM 71.6 °F - 35.6 °F 27% 29.87 in 9.0 mi NNE 4.6 mph - N/A   Clear
12:50 PM 71.6 °F - 33.8 °F 25% 29.86 in 10.0 mi North 3.5 mph - N/A   Clear
1:15 PM 71.6 °F - 33.8 °F 25% 29.85 in 10.0 mi NE 4.6 mph - N/A   Clear
1:30 PM 73.4 °F - 33.8 °F 23% 29.85 in 10.0 mi Calm Calm - N/A   Clear
1:50 PM 73.4 °F - 33.8 °F 23% 29.84 in 10.0 mi NE 4.6 mph - N/A   Clear
2:10 PM 75.2 °F - 32.0 °F 21% 29.83 in 10.0 mi East 3.5 mph - N/A   Clear
2:30 PM 75.2 °F - 32.0 °F 21% 29.83 in 10.0 mi Calm Calm - N/A   Clear
2:50 PM 75.2 °F - 32.0 °F 21% 29.82 in 10.0 mi Calm Calm - N/A   Clear
3:10 PM 77.0 °F - 32.0 °F 19% 29.82 in 10.0 mi NNE 3.5 mph - N/A   Clear
3:35 PM 77.0 °F - 32.0 °F 19% 29.82 in 5.0 mi West 3.5 mph - N/A   Clear
3:50 PM 77.0 °F - 30.2 °F 18% 29.82 in 10.0 mi Calm Calm - N/A   Clear
4:15 PM 77.0 °F - 32.0 °F 19% 29.82 in 10.0 mi Calm Calm - N/A   Clear
4:30 PM 77.0 °F - 32.0 °F 19% 29.81 in 10.0 mi SE 3.5 mph - N/A   Clear
4:55 PM 77.0 °F - 30.2 °F 18% 29.81 in 10.0 mi East 3.5 mph - N/A   Clear
5:10 PM 77.0 °F - 32.0 °F 19% 29.81 in 9.0 mi Calm Calm - N/A   Clear
5:35 PM 75.2 °F - 32.0 °F 21% 29.81 in 10.0 mi Calm Calm - N/A   Clear
5:50 PM 73.4 °F - 35.6 °F 25% 29.81 in 10.0 mi SSE 3.5 mph - N/A   Clear
6:10 PM 71.6 °F - 37.4 °F 29% 29.81 in 10.0 mi South 3.5 mph - N/A   Clear
6:30 PM 68.0 °F - 39.2 °F 35% 29.81 in 10.0 mi Calm Calm - N/A   Clear
6:50 PM 66.2 °F - 39.2 °F 37% 29.82 in 10.0 mi SE 3.5 mph - N/A   Clear
7:15 PM 62.6 °F - 39.2 °F 42% 29.82 in 10.0 mi South 3.5 mph - N/A   Clear
7:30 PM 62.6 °F - 37.4 °F 39% 29.82 in 10.0 mi South 4.6 mph - N/A   Clear
7:55 PM 64.4 °F - 37.4 °F 37% 29.83 in 10.0 mi South 5.8 mph - N/A   Clear
8:10 PM 64.4 °F - 33.8 °F 32% 29.83 in 10.0 mi South 5.8 mph - N/A   Clear
8:35 PM 62.6 °F - 33.8 °F 34% 29.83 in 10.0 mi Calm Calm - N/A   Clear
8:50 PM 59.0 °F - 33.8 °F 39% 29.84 in 10.0 mi Calm Calm - N/A   Clear
9:15 PM 53.6 °F - 35.6 °F 51% 29.84 in 10.0 mi SSW 3.5 mph - N/A   Clear
9:30 PM 55.4 °F - 35.6 °F 47% 29.84 in 10.0 mi SSW 3.5 mph - N/A   Clear
9:55 PM 53.6 °F - 35.6 °F 51% 29.84 in 10.0 mi SW 3.5 mph - N/A   Clear
10:30 PM 53.6 °F - 33.8 °F 47% 29.85 in 10.0 mi SSW 3.5 mph - N/A   Clear
10:50 PM 50.0 °F - 35.6 °F 58% 29.85 in 10.0 mi Calm Calm - N/A   Clear
11:10 PM 50.0 °F - 35.6 °F 58% 29.85 in 10.0 mi Calm Calm - N/A   Clear
11:35 PM 50.0 °F - 32.0 °F 50% 29.86 in 10.0 mi Calm Calm - N/A   Clear
11:50 PM 50.0 °F - 32.0 °F 50% 29.86 in 10.0 mi Calm Calm - N/A   Clear